VA3PC-13 Weather Reports


Display with metric or nautical units.
time (UTC)temp
F
wind
direction
speed
MPH
gust
MPH
rain 1hr
in
rain 24hr
in
rain mn
in
humidity
%
barometer
mb
20260506101539 34 268 0.0 1.0 0.00 0.00 0.00 82 979.1
20260506100517 34 280 0.0 1.0 0.00 0.00 0.00 81 979.3
20260506095520 34 303 0.0 0.0 0.00 0.00 0.00 80 979.4
20260506094519 35 108 0.0 1.0 0.00 0.00 0.00 80 979.3
20260506093519 35 227 0.0 1.0 0.00 0.00 0.00 80 979.3
20260506092519 35 262 0.0 0.0 0.00 0.00 0.00 79 979.5
20260506091517 35 5 0.0 0.0 0.00 0.00 0.00 78 979.5
20260506090516 35 0.0 0.0 0.00 0.00 0.00 78 979.4
20260506085520 35 251 0.0 1.0 0.00 0.00 0.00 77 979.7
20260506084520 36 123 0.0 0.0 0.00 0.00 0.00 76 979.5
20260506083537 36 340 0.0 1.0 0.00 0.00 0.00 76 979.4
20260506082659 36 299 0.0 1.0 0.00 0.00 0.00 75 979.3
20260506081517 36 276 0.0 1.0 0.00 0.00 0.00 75 979.0
20260506080517 36 262 0.0 1.0 0.00 0.00 0.00 75 979.0
20260506073517 36 114 0.0 0.0 0.00 0.00 0.00 74 978.7
20260506072518 36 283 0.0 1.0 0.00 0.00 0.00 75 978.9
20260506071518 36 58 0.0 0.0 0.00 0.01 0.00 74 979.0
20260506070519 36 265 0.0 1.0 0.00 0.01 0.00 73 979.0
20260506061519 37 285 0.0 1.0 0.00 0.01 0.00 70 979.3
20260506060516 37 213 0.0 1.0 0.00 0.01 0.00 69 979.3
20260506050516 38 210 0.0 1.0 0.00 0.02 0.00 67 979.3
20260506044520 39 212 0.0 1.0 0.00 0.02 0.00 65 979.1
20260506043517 39 229 0.0 2.0 0.00 0.02 0.00 66 978.9
20260506042517 39 193 0.0 1.0 0.00 0.02 0.00 65 978.9
20260506041538 39 207 0.0 1.0 0.00 0.03 0.00 65 978.9
20260506040518 40 207 0.0 1.0 0.00 0.03 0.00 64 978.8
20260506035519 40 208 0.0 1.0 0.00 0.03 0.03 64 978.8
20260506034538 40 195 0.0 2.0 0.00 0.03 0.03 63 978.8
20260506033518 40 235 0.0 1.0 0.00 0.03 0.03 62 978.8
20260506032518 40 174 0.0 2.0 0.00 0.03 0.03 62 978.8
20260506031518 41 195 0.0 2.0 0.00 0.03 0.03 62 978.7
20260506030519 41 226 0.0 2.0 0.00 0.03 0.03 61 978.7
20260506025520 41 207 0.0 1.0 0.00 0.03 0.03 60 978.7
20260506023519 42 225 0.0 4.0 0.00 0.03 0.03 60 978.6
20260506022541 42 210 0.0 2.0 0.00 0.03 0.03 58 978.6
20260506021519 43 212 0.0 3.0 0.00 0.03 0.03 59 978.5
20260506020519 43 233 0.0 3.0 0.00 0.03 0.03 58 978.3
20260506015521 43 207 0.0 1.0 0.00 0.03 0.03 59 978.2
20260506014516 44 224 0.0 2.0 0.00 0.03 0.03 57 978.1
20260506013516 44 141 1.0 5.0 0.00 0.03 0.03 56 978.0
20260506012520 45 164 1.0 4.0 0.00 0.03 0.03 55 977.8
20260506011520 45 139 1.0 6.0 0.00 0.03 0.03 54 977.6
20260506010517 45 229 1.0 3.0 0.00 0.03 0.03 54 977.5
20260506005517 46 152 1.0 4.0 0.00 0.03 0.03 51 977.4
20260506004537 47 239 1.0 2.0 0.00 0.03 0.03 51 977.4
20260506003520 47 271 0.0 2.0 0.00 0.03 0.03 49 977.2
20260506002518 48 246 1.0 3.0 0.00 0.03 0.03 48 977.1
20260506001539 48 249 1.0 3.0 0.00 0.03 0.03 47 977.0
20260506000518 49 261 2.0 4.0 0.00 0.03 0.03 47 976.9
20260505235518 49 252 1.0 4.0 0.00 0.03 0.03 46 976.8
20260505234518 49 231 2.0 5.0 0.00 0.03 0.03 45 976.6
20260505233518 50 254 2.0 4.0 0.00 0.03 0.03 45 976.5
20260505232520 50 257 2.0 5.0 0.00 0.03 0.03 44 976.4
20260505231519 50 277 3.0 5.0 0.00 0.03 0.03 44 976.3
20260505230518 50 263 2.0 6.0 0.00 0.03 0.03 40 976.3
20260505225520 51 273 3.0 8.0 0.00 0.03 0.03 39 976.2
20260505224519 51 266 3.0 9.0 0.00 0.03 0.03 38 976.0
20260505223520 51 282 1.0 3.0 0.00 0.03 0.03 39 976.0
20260505222519 51 275 2.0 5.0 0.00 0.03 0.03 39 975.9
20260505221516 51 268 3.0 6.0 0.00 0.03 0.03 38 975.9
20260505220518 51 263 2.0 7.0 0.00 0.03 0.03 39 975.9
20260505215541 52 271 3.0 5.0 0.00 0.03 0.03 40 975.6
20260505214520 52 270 2.0 6.0 0.00 0.03 0.03 40 975.4
20260505213520 52 254 3.0 6.0 0.00 0.03 0.03 39 975.2
20260505212518 51 285 2.0 4.0 0.00 0.03 0.03 42 975.1
20260505211517 51 264 2.0 5.0 0.00 0.03 0.03 44 975.2
20260505210538 51 226 3.0 7.0 0.00 0.03 0.03 43 974.9
20260505205519 51 236 2.0 6.0 0.00 0.03 0.03 43 974.7
20260505204519 51 210 4.0 8.0 0.00 0.03 0.03 42 974.6
20260505203518 51 223 3.0 7.0 0.00 0.03 0.03 41 974.6
20260505202518 52 265 3.0 7.0 0.00 0.03 0.03 39 974.3
20260505201518 52 222 4.0 8.0 0.00 0.03 0.03 39 974.2
20260505200519 53 247 4.0 8.0 0.00 0.03 0.03 38 973.9
20260505195518 53 250 4.0 10.0 0.00 0.03 0.03 38 973.7
20260505194518 53 221 3.0 6.0 0.00 0.03 0.03 39 973.6
20260505193538 53 237 3.0 7.0 0.00 0.03 0.03 40 973.3
20260505192519 53 229 3.0 6.0 0.00 0.03 0.03 40 973.1
20260505191519 53 188 4.0 9.0 0.00 0.03 0.03 40 973.1
20260505190519 54 151 4.0 6.0 0.00 0.03 0.03 40 972.9
20260505185519 54 252 3.0 9.0 0.00 0.03 0.03 40 972.9
20260505184520 54 225 3.0 6.0 0.00 0.03 0.03 40 972.8
20260505183516 53 220 3.0 6.0 0.00 0.03 0.03 41 972.7
20260505182516 54 244 4.0 11.0 0.00 0.03 0.03 40 972.7
20260505181520 53 252 3.0 8.0 0.00 0.03 0.03 42 972.6
20260505180520 53 239 4.0 7.0 0.00 0.03 0.03 41 972.6
20260505175517 54 260 4.0 7.0 0.00 0.03 0.03 40 972.3
20260505174517 54 262 3.0 8.0 0.00 0.03 0.03 40 972.1
20260505173517 54 208 3.0 7.0 0.00 0.03 0.03 40 971.9
20260505172520 54 228 4.0 7.0 0.00 0.03 0.03 40 971.7
20260505171520 54 226 3.0 6.0 0.00 0.03 0.03 40 971.6
20260505170517 54 213 3.0 5.0 0.00 0.03 0.03 40 971.8
20260505165518 53 201 2.0 5.0 0.00 0.03 0.03 41 971.7
20260505164520 53 172 3.0 8.0 0.00 0.03 0.03 42 972.1
20260505163524 53 267 3.0 6.0 0.00 0.03 0.03 43 971.3
20260505162518 51 244 3.0 5.0 0.00 0.03 0.03 45 971.8
20260505161518 50 211 2.0 4.0 0.00 0.03 0.03 45 972.1
20260505160539 51 237 3.0 9.0 0.00 0.03 0.03 47 972.2
20260505152519 50 245 2.0 5.0 0.00 0.03 0.03 54 971.6
20260505151519 50 258 2.0 5.0 0.00 0.03 0.03 57 971.6
20260505150520 50 253 2.0 7.0 0.00 0.03 0.03 58 971.6
20260505140517 47 265 1.0 4.0 0.00 0.03 0.03 71 971.2
20260505124518 47 273 1.0 3.0 0.00 0.03 0.03 74 970.5
20260505123518 47 274 1.0 3.0 0.00 0.03 0.03 74 970.3
20260505122539 47 309 1.0 2.0 0.00 0.03 0.03 75 970.2
20260505121539 47 268 1.0 3.0 0.00 0.03 0.03 76 970.0
20260505120520 47 282 1.0 2.0 0.00 0.03 0.03 78 970.1
20260505115518 47 283 1.0 2.0 0.00 0.03 0.03 78 969.9
20260505114520 47 290 1.0 3.0 0.00 0.03 0.03 78 969.9
20260505113520 47 287 1.0 3.0 0.00 0.03 0.03 79 969.7
20260505112521 47 287 1.0 2.0 0.00 0.03 0.03 80 969.5
20260505111518 47 300 1.0 2.0 0.00 0.03 0.03 81 969.5
20260505110517 46 313 0.0 1.0 0.00 0.03 0.03 83 969.5